Pinedale, WY

6:35 AM MDT on August 30, 2016 (GMT -0600)
Wenz

Weather History for KPNA - August, 2013

Change the Weather History Date:

Saturday, August 17, 2013

  Actual Average (KBPI) Record (KBPI)
Temperature  
Mean Temperature 62 °F 60 °F  
Max Temperature 86 °F 79 °F 91 °F (2003)
Min Temperature 39 °F 40 °F 26 °F (1987)
Degree Days  
Heating Degree Days 2 6  
Month to date heating degree days 71  
Since 1 June heating degree days 493  
Since 1 July heating degree days 188  
Cooling Degree Days 0 0  
Month to date cooling degree days 12  
Year to date cooling degree days 36  
Since 1 June cooling degree days 36  
Growing Degree Days 12 (Base 50)    
Moisture  
Dew Point 30 °F    
Average Humidity 33    
Maximum Humidity 70    
Minimum Humidity 12    
Precipitation  
Precipitation 0.00 in 0.02 in 0.46 in (1998)
Month to date precipitation 0.39  
Year to date precipitation 4.36  
Sea Level Pressure  
Sea Level Pressure 30.30 in    
Wind  
Wind Speed 7 mph (WNW)    
Max Wind Speed 20 mph    
Max Gust Speed 38 mph    
Visibility 10 miles    
Events      
T = Trace of Precipitation, MM = Missing Value Source: NWS Daily Summary

Daily Weather History Graph

Daily Weather History Graph

Search for Another Location

Airport or City:

Trip Planner

Search our weather history database for the weather conditions in past years. The results will help you decide how hot, cold, wet, or windy it might be!

Date:

Astronomy

Aug. 17, 2013 Rise Set
Actual Time 6:28 AM MDT 8:17 PM MDT
Civil Twilight 5:57 AM MDT 8:47 PM MDT
Nautical Twilight 5:20 AM MDT 9:24 PM MDT
Astronomical Twilight 4:40 AM MDT 10:04 PM MDT
Moon 5:38 PM MDT (8/17) 2:32 AM MDT (8/17)
Length of Visible Light 14h 50m
Length of Day
13h 49m
Waxing Gibbous, 85% of the Moon is Illuminated
Aug 17
Waxing Gibbous
Aug 20
Full
Aug 28
Last Quarter
Sep 5
New
Sep 12
First Quarter

Hourly Weather History & Observations

Time (MDT) Temp. Windchill Dew Point Humidity Pressure Visibility Wind Dir Wind Speed Gust Speed Precip Events Conditions
12:15 AM 46.4 °F 43.5 °F 30.2 °F 53% 30.31 in 10.0 mi WNW 5.8 mph - N/A   Clear
12:35 AM 46.4 °F 42.9 °F 32.0 °F 57% 30.31 in 10.0 mi WNW 6.9 mph - N/A   Clear
12:55 AM 44.6 °F 42.2 °F 30.2 °F 57% 30.31 in 10.0 mi WNW 4.6 mph - N/A   Clear
1:15 AM 46.4 °F 42.4 °F 30.2 °F 53% 30.31 in 10.0 mi WNW 8.1 mph - N/A   Clear
1:35 AM 42.8 °F 39.3 °F 30.2 °F 61% 30.31 in 10.0 mi West 5.8 mph - N/A   Clear
1:55 AM 42.8 °F 39.3 °F 30.2 °F 61% 30.31 in 10.0 mi WNW 5.8 mph - N/A   Clear
2:15 AM 42.8 °F 40.1 °F 30.2 °F 61% 30.31 in 10.0 mi WNW 4.6 mph - N/A   Clear
2:35 AM 44.6 °F 43.1 °F 30.2 °F 57% 30.31 in 10.0 mi WNW 3.5 mph - N/A   Clear
2:55 AM 44.6 °F 42.2 °F 30.2 °F 57% 30.31 in 10.0 mi NW 4.6 mph - N/A   Clear
3:15 AM 42.8 °F 39.3 °F 30.2 °F 61% 30.31 in 10.0 mi West 5.8 mph - N/A   Clear
3:35 AM 42.8 °F 38.6 °F 26.6 °F 53% 30.31 in 10.0 mi West 6.9 mph - N/A   Clear
3:55 AM 41.0 °F 35.8 °F 30.2 °F 65% 30.31 in 10.0 mi West 8.1 mph - N/A   Clear
4:15 AM 42.8 °F 37.5 °F 28.4 °F 57% 30.31 in 10.0 mi WNW 9.2 mph - N/A   Clear
4:35 AM 42.8 °F 38.6 °F 30.2 °F 61% 30.31 in 10.0 mi WNW 6.9 mph - N/A   Clear
4:55 AM 41.0 °F 36.4 °F 30.2 °F 65% 30.31 in 10.0 mi NW 6.9 mph - N/A   Clear
5:15 AM 41.0 °F 36.4 °F 28.4 °F 61% 30.32 in 10.0 mi West 6.9 mph - N/A   Clear
5:35 AM 41.0 °F 37.1 °F 28.4 °F 61% 30.32 in 10.0 mi West 5.8 mph - N/A   Clear
5:55 AM 41.0 °F 39.0 °F 28.4 °F 61% 30.33 in 10.0 mi WNW 3.5 mph - N/A   Clear
6:15 AM 41.0 °F 38.0 °F 28.4 °F 61% 30.33 in 10.0 mi WNW 4.6 mph - N/A   Clear
6:35 AM 39.2 °F 33.6 °F 30.2 °F 70% 30.34 in 10.0 mi WNW 8.1 mph - N/A   Clear
6:55 AM 39.2 °F 35.0 °F 30.2 °F 70% 30.34 in 10.0 mi WNW 5.8 mph - N/A   Clear
7:15 AM 42.8 °F 40.1 °F 30.2 °F 61% 30.35 in 10.0 mi WNW 4.6 mph - N/A   Clear
7:35 AM 44.6 °F 41.4 °F 30.2 °F 57% 30.35 in 10.0 mi WNW 5.8 mph - N/A   Clear
7:55 AM 48.2 °F - 32.0 °F 54% 30.35 in 10.0 mi NW 5.8 mph - N/A   Clear
8:15 AM 51.8 °F - 32.0 °F 47% 30.35 in 10.0 mi WNW 4.6 mph - N/A   Clear
8:35 AM 53.6 °F - 32.0 °F 44% 30.35 in 10.0 mi WNW 4.6 mph - N/A   Clear
8:55 AM 59.0 °F - 32.0 °F 36% 30.34 in 10.0 mi Calm Calm - N/A   Clear
9:15 AM 62.6 °F - 32.0 °F 32% 30.34 in 10.0 mi Calm Calm - N/A   Clear
9:35 AM 66.2 °F - 30.2 °F 26% 30.34 in 10.0 mi Calm Calm - N/A   Clear
9:55 AM 69.8 °F - 30.2 °F 23% 30.34 in 10.0 mi Calm Calm - N/A   Clear
10:15 AM 73.4 °F - 28.4 °F 19% 30.34 in 10.0 mi Calm Calm - N/A   Clear
10:35 AM 77.0 °F - 24.8 °F 14% 30.34 in 10.0 mi Calm Calm - N/A   Clear
10:55 AM 78.8 °F - 26.6 °F 15% 30.33 in 10.0 mi NW 3.5 mph - N/A   Clear
11:15 AM 80.6 °F - 26.6 °F 14% 30.33 in 10.0 mi South 4.6 mph - N/A   Clear
11:35 AM 80.6 °F - 23.0 °F 12% 30.33 in 10.0 mi Calm Calm - N/A   Clear
11:55 AM 82.4 °F - 24.8 °F 12% 30.32 in 10.0 mi Calm Calm - N/A   Clear
12:15 PM 82.4 °F - 26.6 °F 13% 30.31 in 10.0 mi SSW 10.4 mph 16.1 mph N/A   Clear
12:35 PM 82.4 °F - 26.6 °F 13% 30.31 in 10.0 mi SW 11.5 mph - N/A   Clear
12:55 PM 82.4 °F - 26.6 °F 13% 30.30 in 10.0 mi South 6.9 mph 18.4 mph N/A   Clear
1:15 PM 84.2 °F - 26.6 °F 12% 30.29 in 10.0 mi SSW 5.8 mph 16.1 mph N/A   Clear
1:35 PM 86.0 °F - 26.6 °F 12% 30.29 in 10.0 mi West 13.8 mph 28.8 mph N/A   Clear
1:55 PM 84.2 °F - 26.6 °F 12% 30.28 in 10.0 mi SW 3.5 mph - N/A   Clear
2:15 PM 84.2 °F - 26.6 °F 12% 30.27 in 10.0 mi West 10.4 mph - N/A   Clear
2:35 PM 82.4 °F - 26.6 °F 13% 30.27 in 10.0 mi North 9.2 mph 19.6 mph N/A   Clear
2:55 PM 82.4 °F - 26.6 °F 13% 30.26 in 10.0 mi Calm Calm - N/A   Clear
3:15 PM 86.0 °F - 26.6 °F 12% 30.25 in 10.0 mi NNW 12.7 mph - N/A   Clear
3:35 PM 86.0 °F - 26.6 °F 12% 30.25 in 10.0 mi North 5.8 mph - N/A   Clear
3:55 PM 84.2 °F - 26.6 °F 12% 30.24 in 10.0 mi NNE 5.8 mph - N/A   Clear
4:15 PM 82.4 °F - 28.4 °F 14% 30.24 in 10.0 mi NNW 13.8 mph - N/A   Clear
4:35 PM 82.4 °F - 30.2 °F 15% 30.23 in 10.0 mi NNW 9.2 mph - N/A   Clear
4:55 PM 82.4 °F - 26.6 °F 13% 30.22 in 10.0 mi North 9.2 mph - N/A   Clear
5:15 PM 82.4 °F - 26.6 °F 13% 30.22 in 10.0 mi NW 11.5 mph - N/A   Clear
5:35 PM 82.4 °F - 28.4 °F 14% 30.22 in 10.0 mi WNW 10.4 mph - N/A   Clear
5:55 PM 78.8 °F - 32.0 °F 18% 30.23 in 10.0 mi NW 19.6 mph 23.0 mph N/A   Clear
6:15 PM 78.8 °F - 32.0 °F 18% 30.23 in 10.0 mi NW 17.3 mph - N/A   Clear
6:35 PM 77.0 °F - 33.8 °F 21% 30.23 in 10.0 mi NNW 11.5 mph - N/A   Clear
6:55 PM 75.2 °F - 33.8 °F 22% 30.24 in 10.0 mi NW 5.8 mph - N/A   Clear
7:15 PM 73.4 °F - 33.8 °F 23% 30.25 in 10.0 mi West 18.4 mph 24.2 mph N/A   Mostly Cloudy
7:35 PM 77.0 °F - 30.2 °F 18% 30.27 in 10.0 mi West 13.8 mph 38.0 mph N/A   Mostly Cloudy
7:55 PM 75.2 °F - 30.2 °F 19% 30.26 in 10.0 mi NNW 11.5 mph 16.1 mph N/A   Scattered Clouds
8:15 PM 73.4 °F - 32.0 °F 22% 30.26 in 10.0 mi NW 11.5 mph - N/A   Mostly Cloudy
8:35 PM 71.6 °F - 32.0 °F 23% 30.26 in 10.0 mi North 17.3 mph - N/A   Scattered Clouds
8:55 PM 71.6 °F - 32.0 °F 23% 30.27 in 10.0 mi North 15.0 mph - N/A   Mostly Cloudy
9:15 PM 71.6 °F - 32.0 °F 23% 30.27 in 10.0 mi North 6.9 mph - N/A   Overcast
9:35 PM 69.8 °F - 33.8 °F 27% 30.29 in 10.0 mi WSW 17.3 mph 25.3 mph N/A   Overcast
9:55 PM 71.6 °F - 32.0 °F 23% 30.29 in 10.0 mi WSW 11.5 mph 24.2 mph N/A   Mostly Cloudy
10:15 PM 71.6 °F - 32.0 °F 23% 30.29 in 10.0 mi West 3.5 mph - N/A   Clear
10:35 PM 69.8 °F - 33.8 °F 27% 30.29 in 10.0 mi NNW 6.9 mph - N/A   Scattered Clouds
10:55 PM 68.0 °F - 35.6 °F 30% 30.29 in 10.0 mi NW 6.9 mph - N/A   Mostly Cloudy
11:15 PM 68.0 °F - 35.6 °F 30% 30.30 in 10.0 mi WSW 3.5 mph - N/A   Overcast
11:35 PM 66.2 °F - 35.6 °F 32% 30.31 in 10.0 mi NW 12.7 mph - N/A   Mostly Cloudy
11:55 PM 64.4 °F - 37.4 °F 37% 30.29 in 10.0 mi North 17.3 mph - N/A   Overcast